Date,TemperatureHighF,TemperatureAvgF,TemperatureLowF,DewpointHighF,DewpointAvgF,DewpointLowF,HumidityHigh,HumidityAvg,HumidityLow,PressureMaxIn,PressureMinIn,WindSpeedMaxMPH,WindSpeedAvgMPH,GustSpeedMaxMPH,PrecipitationSumIn
2013-2-1,33,30,27,23,18,12,73,61,50,30.21,29.75,31,-2,31,0.00
2013-2-2,31,28,24,25,16,10,93,64,43,30.34,30.11,20,-3,25,0.00
2013-2-3,31,28,23,24,22,19,93,77,64,30.11,29.80,14,-8,14,0.00
2013-2-4,31,29,26,26,19,14,88,65,55,30.02,29.81,18,-6,18,0.00
2013-2-5,30,29,26,29,25,14,94,85,59,30.04,29.95,13,-5,13,0.00
2013-2-6,38,34,28,31,26,9,93,75,41,30.39,29.95,28,-6,28,0.03
2013-2-7,32,29,26,24,15,7,76,56,40,30.56,30.38,27,-3,27,0.00
2013-2-8,34,32,28,33,31,23,98,93,72,30.43,29.52,37,-1,41,0.35
2013-2-9,30,27,24,28,15,10,98,60,47,30.31,29.63,43,17,44,0.35
2013-2-10,35,27,22,20,13,5,72,57,34,30.51,30.30,29,-7,31,0.00
2013-2-11,48,40,27,48,39,20,99,95,71,30.41,29.70,22,-5,22,0.62
2013-2-12,40,38,35,38,34,31,100,85,75,29.99,29.72,15,-2,15,0.00
2013-2-13,39,36,34,33,30,25,90,81,61,29.97,29.71,11,-6,11,0.00
2013-2-14,42,36,32,34,31,26,97,83,54,30.06,29.74,15,-8,15,0.04
2013-2-15,50,42,34,41,38,32,98,86,67,30.08,29.96,19,-8,19,0.01
2013-2-16,41,36,31,38,31,26,95,83,66,29.98,29.71,28,-1,28,0.00
2013-2-17,31,27,21,28,16,10,88,64,44,29.89,29.57,41,10,41,0.00
2013-2-18,33,26,20,21,15,11,72,62,51,30.27,29.89,35,-2,35,0.00
2013-2-19,50,41,30,46,35,15,97,79,53,30.27,29.68,20,-11,23,0.25
2013-2-20,38,32,28,37,23,17,97,68,55,29.96,29.68,24,2,27,0.10
2013-2-21,34,29,26,23,20,18,78,69,59,30.28,29.94,33,1,33,0.00
2013-2-22,38,33,27,30,26,20,83,77,67,30.44,30.27,31,-5,32,0.00
2013-2-23,41,37,33,38,35,29,97,91,82,30.34,29.83,25,-7,25,0.18
2013-2-24,38,36,33,37,35,31,98,96,82,29.96,29.73,24,-3,24,0.07
2013-2-25,43,37,33,34,32,28,95,80,63,30.29,29.96,19,-8,19,0.00
2013-2-26,43,38,35,36,34,30,96,84,62,30.36,30.03,21,-8,21,0.12
2013-2-27,47,42,37,47,42,36,100,98,96,30.03,29.56,33,-5,36,1.24
2013-2-28,47,41,37,44,39,36,99,93,81,29.67,29.57,9,-10,9,0.09